Location: Asheville, NC
(35.6000°N, 82.5500°W)
Time: 16:38:34
(UTC-05:00)

OTV 5 (USA 277) - Pass Details

Date: 06 January 2018
Orbit: 404 x 417 km, 43.0° (Epoch: 07 September)

Event Time Altitude Azimuth Distance (km) Brightness Sun altitude
Exits shadow 05:57:42 21° 17° (NNE) 969 ? -20.3°
Drops below altitude 10° 05:59:50 10° 56° (NE) 1,452 ? -19.9°
Sets 06:02:15 0° 73° (ENE) 2,311 ? -19.4°
